Lawrence, MA

9:13 PM EST on November 15, 2019 (GMT -0500)
Lawrence Municipal

Weather History for KLWM - August, 2019

Change the Weather History Date:

Wednesday, August 21, 2019

  Actual Average Record
Temperature  
Mean Temperature 73 °F -  
Max Temperature 84 °F 79 °F 95 °F (1983)
Min Temperature 64 °F 57 °F 48 °F (1926)
Cooling Degree Days 8    
Growing Degree Days 23 (Base 50)    
Moisture  
Dew Point 69 °F    
Average Humidity 86    
Maximum Humidity 94    
Minimum Humidity 63    
Precipitation  
Precipitation 0.38 in - - ()
Sea Level Pressure  
Sea Level Pressure 29.92 in    
Wind  
Wind Speed 4 mph (South)    
Max Wind Speed 13 mph    
Max Gust Speed 18 mph    
Visibility 8 miles    
Events Rain , Thunderstorm    
Averages and records for this station are not official NWS values.
T = Trace of Precipitation, MM = Missing Value Source: NWS Daily Summary

Daily Weather History Graph

Daily Weather History Graph

Search for Another Location

Airport or City:

Astronomy

Aug. 21, 2019 Rise Set
Actual Time 5:57 AM EDT 7:37 PM EDT
Civil Twilight 5:27 AM EDT 8:07 PM EDT
Nautical Twilight 4:50 AM EDT 8:43 PM EDT
Astronomical Twilight 4:11 AM EDT 9:22 PM EDT
Moon 10:45 PM EDT (8/21) 11:37 AM EDT (8/21)
Length of Visible Light 14h 40m
Length of Day
13h 40m
Waning Gibbous, 69% of the Moon is Illuminated
Aug 21
Waning Gibbous
Aug 23
Last Quarter
Aug 30
New
Sep 5
First Quarter
Sep 14
Full

Hourly Weather History & Observations

Time (EDT) Temp. Heat Index Dew Point Humidity Pressure Visibility Wind Dir Wind Speed Gust Speed Precip Events Conditions
12:54 AM 64.9 °F - 61.0 °F 87% 30.04 in 10.0 mi Calm Calm - N/A   Clear
1:54 AM 64.0 °F - 62.1 °F 93% 30.05 in 10.0 mi SSW 3.5 mph - N/A   Clear
2:54 AM 64.9 °F - 61.0 °F 87% 30.04 in 10.0 mi South 3.5 mph - N/A   Clear
3:54 AM 64.0 °F - 61.0 °F 90% 30.02 in 10.0 mi SW 3.5 mph - N/A   Clear
4:54 AM 64.9 °F - 61.0 °F 87% 30.03 in 10.0 mi Calm Calm - N/A   Clear
5:54 AM 64.9 °F - 61.0 °F 87% 30.01 in 10.0 mi SSW 3.5 mph - N/A   Partly Cloudy
6:54 AM 66.9 °F - 63.0 °F 87% 30.01 in 10.0 mi SSW 5.8 mph - N/A   Clear
7:54 AM 71.1 °F - 64.0 °F 78% 30.01 in 10.0 mi SSW 6.9 mph - N/A   Clear
8:54 AM 75.0 °F - 66.0 °F 73% 30.01 in 10.0 mi SSW 5.8 mph - N/A   Partly Cloudy
9:54 AM 77.0 °F - 68.0 °F 74% 30.00 in 10.0 mi SW 3.5 mph - 0.00 in   Partly Cloudy
11:00 AM 78.8 °F - 68.0 °F 69% 29.99 in 10.0 mi SSW 4.6 mph - N/A   Mostly Cloudy
11:54 AM 82.0 °F 85.5 °F 69.1 °F 65% 29.96 in 10.0 mi Calm Calm - N/A   Overcast
12:54 PM 82.9 °F 86.5 °F 69.1 °F 63% 29.94 in 10.0 mi SSE 10.4 mph - N/A   Mostly Cloudy
1:54 PM 81.0 °F 84.4 °F 70.0 °F 69% 29.91 in 10.0 mi SE 4.6 mph - N/A   Mostly Cloudy
2:09 PM 81.0 °F 84.9 °F 71.1 °F 72% 29.91 in 10.0 mi East 4.6 mph - 0.00 in Rain , Thunderstorm Light Rain
2:18 PM 81.0 °F 84.9 °F 71.1 °F 72% 29.90 in 10.0 mi East 4.6 mph - 0.00 in Thunderstorm Thunderstorm
2:54 PM 77.0 °F - 69.1 °F 76% 29.89 in 8.0 mi Calm Calm - 0.03 in Rain , Thunderstorm Light Thunderstorms and Rain
3:09 PM 73.9 °F - 71.1 °F 91% 29.92 in 0.8 mi South 6.9 mph - 0.18 in Rain , Thunderstorm Heavy Thunderstorms and Rain
3:19 PM 73.9 °F - 72.0 °F 93% 29.91 in 0.8 mi South 4.6 mph - 0.30 in Rain , Thunderstorm Heavy Thunderstorms and Rain
3:25 PM 73.9 °F - 71.1 °F 91% 29.90 in 2.0 mi Variable 5.8 mph - 0.31 in Rain , Thunderstorm Thunderstorms and Rain
3:29 PM 73.9 °F - 71.1 °F 91% 29.90 in 3.0 mi Calm Calm - 0.31 in Rain , Thunderstorm Light Thunderstorms and Rain
3:32 PM 73.9 °F - 71.1 °F 91% 29.90 in 10.0 mi Calm Calm - 0.31 in Rain Light Rain
3:38 PM 73.9 °F - 71.1 °F 91% 29.90 in 10.0 mi Calm Calm - 0.32 in Rain Light Rain
3:54 PM 73.9 °F - 72.0 °F 93% 29.90 in 6.0 mi North 4.6 mph - 0.34 in Rain Light Rain
4:01 PM 73.9 °F - 72.0 °F 93% 29.90 in 1.8 mi NE 5.8 mph - 0.00 in Rain Light Rain
4:13 PM 75.0 °F - 72.0 °F 90% 29.90 in 6.0 mi East 3.5 mph - 0.00 in Rain Light Rain
4:54 PM 75.0 °F - 72.0 °F 90% 29.88 in 6.0 mi Calm Calm - 0.01 in   Mostly Cloudy
5:54 PM 77.0 °F - 73.9 °F 90% 29.86 in 8.0 mi Variable 4.6 mph - N/A   Mostly Cloudy
6:18 PM 75.9 °F - 73.0 °F 91% 29.85 in 10.0 mi South 5.8 mph - 0.00 in Rain Light Rain
6:29 PM 75.9 °F - 73.0 °F 91% 29.86 in 9.0 mi South 5.8 mph - 0.00 in   Mostly Cloudy
6:54 PM 75.9 °F - 73.0 °F 91% 29.85 in 8.0 mi SSW 5.8 mph - 0.00 in   Partly Cloudy
7:19 PM 75.9 °F - 73.0 °F 91% 29.86 in 8.0 mi SSW 5.8 mph - N/A   Mostly Cloudy
7:54 PM 75.0 °F - 73.0 °F 94% 29.85 in 8.0 mi South 5.8 mph - N/A   Partly Cloudy
8:50 PM 75.2 °F - 71.6 °F 89% 29.84 in 10.0 mi SSW 6.9 mph - N/A   Mostly Cloudy
8:54 PM 75.0 °F - 72.0 °F 90% 29.84 in 10.0 mi SSW 5.8 mph - N/A   Mostly Cloudy
9:23 PM 73.9 °F - 72.0 °F 93% 29.83 in 10.0 mi SSW 6.9 mph - N/A   Partly Cloudy
9:54 PM 73.9 °F - 72.0 °F 93% 29.83 in 10.0 mi SSW 5.8 mph - N/A   Clear
10:10 PM 73.9 °F - 72.0 °F 93% 29.83 in 10.0 mi South 6.9 mph - N/A   Mostly Cloudy
10:36 PM 73.9 °F - 70.0 °F 87% 29.83 in 10.0 mi SSW 12.7 mph 18.4 mph N/A   Scattered Clouds
11:54 PM 71.1 °F - 68.0 °F 90% 29.83 in 10.0 mi SW 9.2 mph - N/A   Clear